When you browse on this site, cookies collect data to enhance your experience and personalize the content and advertising you see.
Visit our Privacy Policy to learn more. By continuing to use the site, you agree to this use of cookies and data.

Météo par heure à Ile de Korfu

Ce jour, 8 Août, Samedi

Heure Température Précipitation Vent Pression Humidité
00:00 +24°C° 0 mm 2 m/s 755 mmHg 79%
01:00 +24°C° 0 mm 2 m/s 755 mmHg 81%
02:00 +24°C° 0 mm 2 m/s 755 mmHg 80%
03:00 +23°C° 0 mm 2 m/s 755 mmHg 80%
04:00 +23°C° 0 mm 2 m/s 754 mmHg 80%
05:00 +24°C° 0.1 mm 2 m/s 754 mmHg 75%
06:00 +25°C° 0.1 mm 2 m/s 755 mmHg 71%
07:00 +26°C° 0 mm 2 m/s 755 mmHg 66%
08:00 +27°C° 0 mm 2 m/s 755 mmHg 63%
09:00 +28°C° 0 mm 2 m/s 755 mmHg 60%
10:00 +28°C° 0 mm 2 m/s 755 mmHg 57%
11:00 +29°C° 0.1 mm 2 m/s 754 mmHg 57%
12:00 +29°C° 0.1 mm 3 m/s 754 mmHg 56%
13:00 +29°C° 0.1 mm 3 m/s 754 mmHg 56%
14:00 +28°C° 0.4 mm 4 m/s 754 mmHg 62%
15:00 +27°C° 0.4 mm 5 m/s 754 mmHg 68%
16:00 +27°C° 0.4 mm 5 m/s 753 mmHg 74%
17:00 +26°C° 0.4 mm 4 m/s 754 mmHg 73%
18:00 +26°C° 0.4 mm 4 m/s 754 mmHg 71%
19:00 +25°C° 0.4 mm 3 m/s 754 mmHg 70%
20:00 +25°C° 0 mm 3 m/s 754 mmHg 69%
21:00 +25°C° 0 mm 3 m/s 754 mmHg 69%
22:00 +25°C° 0 mm 3 m/s 754 mmHg 68%
23:00 +25°C° 0 mm 2 m/s 754 mmHg 69%

Demain, 9 Août, Dimanche

Heure Température Précipitation Vent Pression Humidité
00:00 +25°C° 0 mm 2 m/s 754 mmHg 70%
01:00 +25°C° 0 mm 2 m/s 753 mmHg 71%
02:00 +25°C° 0 mm 2 m/s 753 mmHg 70%
03:00 +24°C° 0 mm 2 m/s 753 mmHg 69%
04:00 +24°C° 0 mm 2 m/s 753 mmHg 68%
05:00 +25°C° 0 mm 2 m/s 753 mmHg 65%
06:00 +26°C° 0 mm 2 m/s 753 mmHg 62%
07:00 +28°C° 0 mm 2 m/s 754 mmHg 58%
08:00 +29°C° 0 mm 2 m/s 754 mmHg 53%
09:00 +31°C° 0 mm 2 m/s 754 mmHg 47%
10:00 +34°C° 0 mm 2 m/s 754 mmHg 41%
11:00 +34°C° 0 mm 2 m/s 754 mmHg 42%
12:00 +34°C° 0 mm 3 m/s 754 mmHg 42%
13:00 +34°C° 0 mm 4 m/s 754 mmHg 42%
14:00 +33°C° 0 mm 5 m/s 754 mmHg 45%
15:00 +32°C° 0 mm 5 m/s 753 mmHg 48%
16:00 +32°C° 0 mm 5 m/s 753 mmHg 51%
17:00 +30°C° 0 mm 5 m/s 753 mmHg 55%
18:00 +29°C° 0 mm 4 m/s 754 mmHg 60%
19:00 +28°C° 0 mm 4 m/s 754 mmHg 64%
20:00 +28°C° 0 mm 3 m/s 754 mmHg 64%
21:00 +28°C° 0 mm 3 m/s 754 mmHg 63%
22:00 +27°C° 0 mm 2 m/s 754 mmHg 63%
23:00 +27°C° 0 mm 2 m/s 754 mmHg 62%

Après-demain, 10 Août, Lundi

Heure Température Précipitation Vent Pression Humidité
00:00 +27°C° 0 mm 2 m/s 754 mmHg 62%
01:00 +27°C° 0 mm 2 m/s 754 mmHg 61%
02:00 +26°C° 0 mm 2 m/s 754 mmHg 62%
03:00 +26°C° 0 mm 1 m/s 754 mmHg 62%
04:00 +26°C° 0 mm 1 m/s 754 mmHg 62%
05:00 +27°C° 0 mm 1 m/s 754 mmHg 59%
06:00 +28°C° 0 mm 1 m/s 754 mmHg 56%
07:00 +29°C° 0 mm 1 m/s 755 mmHg 53%
08:00 +30°C° 0 mm 1 m/s 755 mmHg 49%
09:00 +32°C° 0 mm 1 m/s 755 mmHg 45%
10:00 +33°C° 0 mm 1 m/s 755 mmHg 41%
11:00 +33°C° 0 mm 1 m/s 755 mmHg 41%
12:00 +34°C° 0 mm 2 m/s 755 mmHg 42%
13:00 +33°C° 0 mm 3 m/s 755 mmHg 42%
14:00 +33°C° 0.1 mm 3 m/s 755 mmHg 45%
15:00 +33°C° 0.1 mm 3 m/s 755 mmHg 48%
16:00 +32°C° 0.1 mm 4 m/s 754 mmHg 51%
17:00 +30°C° 0.1 mm 3 m/s 755 mmHg 56%
18:00 +29°C° 0.1 mm 3 m/s 755 mmHg 62%
19:00 +28°C° 0.1 mm 2 m/s 755 mmHg 67%
20:00 +27°C° 0.1 mm 2 m/s 755 mmHg 68%
21:00 +27°C° 0.1 mm 2 m/s 756 mmHg 69%
22:00 +27°C° 0.1 mm 1 m/s 756 mmHg 70%
23:00 +27°C° 0 mm 2 m/s 756 mmHg 70%

11 Août, Mardi

Heure Température Précipitation Vent Pression Humidité
00:00 +26°C° 0 mm 2 m/s 756 mmHg 70%
01:00 +26°C° 0 mm 2 m/s 756 mmHg 71%
02:00 +26°C° 0 mm 2 m/s 756 mmHg 71%
03:00 +26°C° 0 mm 3 m/s 756 mmHg 72%
04:00 +26°C° 0 mm 3 m/s 756 mmHg 73%
05:00 +26°C° 0 mm 3 m/s 756 mmHg 70%
06:00 +27°C° 0 mm 2 m/s 756 mmHg 66%
07:00 +28°C° 0 mm 2 m/s 756 mmHg 63%
08:00 +30°C° 0 mm 2 m/s 756 mmHg 57%
09:00 +31°C° 0 mm 2 m/s 757 mmHg 52%
10:00 +32°C° 0 mm 2 m/s 757 mmHg 46%
11:00 +32°C° 0 mm 2 m/s 757 mmHg 47%
12:00 +33°C° 0 mm 3 m/s 756 mmHg 49%
13:00 +33°C° 0 mm 4 m/s 756 mmHg 51%
14:00 +32°C° 0 mm 4 m/s 756 mmHg 52%
15:00 +32°C° 0 mm 4 m/s 756 mmHg 53%
16:00 +32°C° 0 mm 4 m/s 756 mmHg 54%
17:00 +30°C° 0.1 mm 4 m/s 756 mmHg 59%
18:00 +29°C° 0.1 mm 4 m/s 756 mmHg 64%
19:00 +28°C° 0.1 mm 4 m/s 756 mmHg 68%
20:00 +27°C° 0.1 mm 3 m/s 756 mmHg 71%
21:00 +27°C° 0.1 mm 3 m/s 756 mmHg 73%
22:00 +27°C° 0.1 mm 3 m/s 756 mmHg 76%
23:00 +26°C° 0 mm 3 m/s 756 mmHg 76%

12 Août, Mercredi

Heure Température Précipitation Vent Pression Humidité
00:00 +26°C° 0 mm 3 m/s 756 mmHg 76%
01:00 +26°C° 0 mm 3 m/s 756 mmHg 75%
02:00 +26°C° 0 mm 3 m/s 756 mmHg 76%
03:00 +26°C° 0 mm 2 m/s 755 mmHg 76%
04:00 +26°C° 0 mm 2 m/s 755 mmHg 76%
05:00 +27°C° 0 mm 2 m/s 755 mmHg 72%
06:00 +28°C° 0 mm 2 m/s 755 mmHg 68%
07:00 +29°C° 0 mm 2 m/s 755 mmHg 64%
08:00 +30°C° 0 mm 2 m/s 756 mmHg 58%
09:00 +31°C° 0 mm 2 m/s 756 mmHg 52%
10:00 +32°C° 0 mm 2 m/s 756 mmHg 47%
11:00 +33°C° 0 mm 3 m/s 756 mmHg 49%
12:00 +33°C° 0 mm 4 m/s 755 mmHg 50%
13:00 +32°C° 0 mm 5 m/s 755 mmHg 52%
14:00 +32°C° 0 mm 5 m/s 755 mmHg 54%
15:00 +32°C° 0 mm 5 m/s 755 mmHg 56%
16:00 +30°C° 0 mm 5 m/s 755 mmHg 59%
17:00 +30°C° 0 mm 4 m/s 755 mmHg 63%
18:00 +29°C° 0 mm 4 m/s 755 mmHg 68%
19:00 +28°C° 0 mm 4 m/s 755 mmHg 72%
20:00 +28°C° 0 mm 3 m/s 755 mmHg 73%
21:00 +27°C° 0 mm 3 m/s 756 mmHg 73%
22:00 +27°C° 0 mm 3 m/s 756 mmHg 73%
23:00 +27°C° 0 mm 3 m/s 756 mmHg 73%

13 Août, Jeudi

Heure Température Précipitation Vent Pression Humidité
00:00 +27°C° 0 mm 3 m/s 756 mmHg 74%
01:00 +27°C° 0 mm 3 m/s 755 mmHg 74%
02:00 +26°C° 0 mm 3 m/s 755 mmHg 75%
03:00 +26°C° 0 mm 3 m/s 755 mmHg 77%
04:00 +26°C° 0 mm 3 m/s 755 mmHg 78%
05:00 +27°C° 0 mm 3 m/s 755 mmHg 73%
06:00 +28°C° 0 mm 3 m/s 755 mmHg 68%
07:00 +29°C° 0 mm 2 m/s 755 mmHg 63%
08:00 +30°C° 0 mm 2 m/s 756 mmHg 58%
09:00 +31°C° 0 mm 2 m/s 756 mmHg 53%
10:00 +33°C° 0 mm 3 m/s 756 mmHg 48%
11:00 +33°C° 0 mm 3 m/s 756 mmHg 49%
12:00 +33°C° 0 mm 4 m/s 755 mmHg 50%
13:00 +33°C° 0 mm 4 m/s 755 mmHg 52%
14:00 +33°C° 0 mm 4 m/s 755 mmHg 53%
15:00 +33°C° 0 mm 5 m/s 755 mmHg 54%
16:00 +33°C° 0 mm 5 m/s 755 mmHg 55%
17:00 +32°C° 0 mm 4 m/s 755 mmHg 59%
18:00 +30°C° 0 mm 4 m/s 755 mmHg 62%
19:00 +29°C° 0 mm 4 m/s 755 mmHg 65%
20:00 +29°C° 0 mm 3 m/s 756 mmHg 65%
21:00 +29°C° 0 mm 3 m/s 756 mmHg 64%
22:00 +28°C° 0 mm 3 m/s 756 mmHg 64%
23:00 +28°C° 0 mm 2 m/s 756 mmHg 65%
Voir plus